Weather History for KJKL - July, 2013

Change the Weather History Date:

Thursday, July 11, 2013

  Actual Average Record
Temperature  
Mean Temperature 74 °F 76 °F  
Max Temperature 82 °F 85 °F 93 °F (1990)
Min Temperature 66 °F 66 °F 59 °F (2008)
Degree Days  
Heating Degree Days 0 0  
Month to date heating degree days 0 0  
Since 1 June heating degree days 0 12  
Since 1 July heating degree days 0 0  
Cooling Degree Days 9 11  
Month to date cooling degree days 97 111  
Year to date cooling degree days 469 470  
Since 1 June cooling degree days 321 334  
Growing Degree Days 24 (Base 50)    
Moisture  
Dew Point 67 °F    
Average Humidity 81    
Maximum Humidity 100    
Minimum Humidity 62    
Precipitation  
Precipitation T in 0.14 in 1.57 in (1988)
Month to date precipitation 3.79 1.59  
Year to date precipitation 30.35 26.80  
Snow  
Snow 0.00 in 0.00 in - ()
Month to date snowfall 0.0 0.0  
Since 1 June snowfall 0.0 0.0  
Since 1 July snowfall 0.0 0.0  
Snow Depth 0.00 in    
Sea Level Pressure  
Sea Level Pressure 29.98 in    
Wind  
Wind Speed 1 mph (NW)    
Max Wind Speed 13 mph    
Max Gust Speed 18 mph    
Visibility 5 miles    
Events Fog , Rain , Thunderstorm    
T = Trace of Precipitation, MM = Missing Value Source: NWS Daily Summary

Daily Weather History Graph

Daily Weather History Graph

Search for Another Location

Airport or City:

Trip Planner

Search our weather history database for the weather conditions in past years. The results will help you decide how hot, cold, wet, or windy it might be!

Date:

Astronomy

Jul. 11, 2013 Rise Set
Actual Time 6:21 AM EDT 8:56 PM EDT
Civil Twilight 5:50 AM EDT 9:26 PM EDT
Nautical Twilight 5:12 AM EDT 10:04 PM EDT
Astronomical Twilight 4:30 AM EDT 10:46 PM EDT
Moon 9:34 AM EDT (7/11) 10:41 PM EDT (7/11)
Length of Visible Light 15h 35m
Length of Day
14h 34m
Waxing Crescent, 10% of the Moon is Illuminated
Jul 11
Waxing Crescent
Jul 15
First Quarter
Jul 22
Full
Jul 29
Last Quarter
Aug 6
New

Hourly Weather History & Observations

Time (EDT) Temp. Heat Index Dew Point Humidity Pressure Visibility Wind Dir Wind Speed Gust Speed Precip Events Conditions
12:03 AM 69.8 °F - 68.0 °F 94% 30.00 in 5.0 mi WNW 4.6 mph - N/A   Mostly Cloudy
12:20 AM 69.8 °F - 68.0 °F 94% 30.00 in 1.5 mi WNW 3.5 mph - N/A   Mostly Cloudy
12:43 AM 69.8 °F - 68.0 °F 94% 30.01 in 2.0 mi NW 3.5 mph - N/A   Overcast
12:51 AM 69.8 °F - 68.0 °F 94% 30.01 in 1.5 mi WNW 3.5 mph - N/A   Overcast
12:53 AM 69.1 °F - 68.0 °F 96% 29.96 in 1.0 mi NW 4.6 mph - N/A   Overcast
1:09 AM 69.8 °F - 68.0 °F 94% 30.00 in 2.5 mi WNW 4.6 mph - N/A   Overcast
1:16 AM 69.8 °F - 68.0 °F 94% 30.00 in 7.0 mi WNW 4.6 mph - N/A   Overcast
1:53 AM 68.0 °F - 68.0 °F 100% 29.95 in 5.0 mi Calm Calm - N/A   Mostly Cloudy
2:01 AM 68.0 °F - 66.2 °F 94% 29.99 in 1.8 mi Calm Calm - N/A   Mostly Cloudy
2:13 AM 68.0 °F - 66.2 °F 94% 29.99 in 0.8 mi Calm Calm - N/A   Overcast
2:39 AM 69.8 °F - 68.0 °F 94% 29.99 in 1.8 mi Calm Calm - N/A   Overcast
2:43 AM 68.0 °F - 68.0 °F 100% 29.99 in 0.8 mi Calm Calm - N/A   Mist
2:53 AM 68.0 °F - 68.0 °F 100% 29.94 in 0.2 mi Calm Calm - N/A Fog Fog
3:53 AM 68.0 °F - 68.0 °F 100% 29.95 in 0.8 mi Calm Calm - N/A   Mist
4:08 AM 68.0 °F - 66.2 °F 94% 29.99 in 1.8 mi Calm Calm - N/A   Overcast
4:18 AM 68.0 °F - 68.0 °F 100% 29.99 in 0.8 mi Calm Calm - N/A   Mist
4:28 AM 68.0 °F - 68.0 °F 100% 29.99 in 2.0 mi Calm Calm - N/A   Overcast
4:36 AM 68.0 °F - 66.2 °F 94% 29.99 in 4.0 mi Calm Calm - N/A   Overcast
4:53 AM 68.0 °F - 68.0 °F 100% 29.94 in 4.0 mi Calm Calm - N/A   Overcast
5:07 AM 68.0 °F - 66.2 °F 94% 29.98 in 2.0 mi Calm Calm - N/A   Overcast
5:14 AM 68.0 °F - 66.2 °F 94% 29.98 in 1.5 mi Calm Calm - N/A   Overcast
5:21 AM 68.0 °F - 66.2 °F 94% 29.98 in 2.0 mi Calm Calm - N/A   Overcast
5:30 AM 68.0 °F - 66.2 °F 94% 29.99 in 1.5 mi Calm Calm - N/A   Overcast
5:40 AM 68.0 °F - 66.2 °F 94% 29.99 in 2.0 mi Calm Calm - N/A   Overcast
5:53 AM 68.0 °F - 66.9 °F 96% 29.94 in 2.0 mi Calm Calm - N/A   Overcast
5:58 AM 68.0 °F - 66.2 °F 94% 29.99 in 1.5 mi Calm Calm - N/A   Overcast
6:06 AM 68.0 °F - 66.2 °F 94% 29.99 in 2.0 mi Calm Calm - N/A   Overcast
6:13 AM 68.0 °F - 66.2 °F 94% 30.00 in 5.0 mi Calm Calm - N/A   Overcast
6:22 AM 68.0 °F - 66.2 °F 94% 30.00 in 1.8 mi Calm Calm - N/A   Overcast
6:25 AM 68.0 °F - 66.2 °F 94% 30.00 in 0.8 mi Calm Calm - N/A   Overcast
6:53 AM 68.0 °F - 66.9 °F 96% 29.97 in 0.2 mi Calm Calm - N/A Fog Fog
7:19 AM 68.0 °F - 66.2 °F 94% 30.00 in 1.5 mi Calm Calm - N/A   Overcast
7:34 AM 68.0 °F - 66.2 °F 94% 30.00 in 0.5 mi Calm Calm - N/A Fog Fog
7:53 AM 69.1 °F - 68.0 °F 96% 29.97 in 0.2 mi Calm Calm - N/A Fog Fog
8:16 AM 69.8 °F - 68.0 °F 94% 30.01 in 2.0 mi Calm Calm - N/A   Overcast
8:24 AM 69.8 °F - 68.0 °F 94% 30.01 in 5.0 mi Calm Calm - N/A   Overcast
8:49 AM 69.8 °F - 68.0 °F 94% 30.01 in 1.8 mi Calm Calm - N/A   Overcast
8:53 AM 69.1 °F - 66.9 °F 93% 29.98 in 1.5 mi Calm Calm - N/A   Overcast
8:58 AM 69.8 °F - 66.2 °F 88% 30.01 in 2.5 mi Calm Calm - N/A   Overcast
9:01 AM 69.8 °F - 66.2 °F 88% 30.01 in 6.0 mi Calm Calm - N/A   Overcast
9:53 AM 71.1 °F - 66.9 °F 87% 29.98 in 10.0 mi Calm Calm - N/A   Overcast
10:43 AM 71.6 °F - 66.2 °F 83% 30.02 in 9.0 mi Calm Calm - N/A   Overcast
10:53 AM 72.0 °F - 66.9 °F 84% 29.98 in 10.0 mi NW 3.5 mph - N/A   Overcast
11:53 AM 73.9 °F - 66.9 °F 79% 29.98 in 10.0 mi Calm Calm - N/A   Overcast
12:34 PM 78.8 °F - 64.4 °F 61% 30.02 in 10.0 mi Calm Calm - N/A   Overcast
12:53 PM 75.9 °F - 64.9 °F 69% 29.98 in 10.0 mi NW 4.6 mph - N/A   Overcast
1:53 PM 78.1 °F - 66.9 °F 68% 29.96 in 10.0 mi Variable 3.5 mph - N/A   Scattered Clouds
2:33 PM 78.8 °F - 66.2 °F 65% 29.99 in 10.0 mi Calm Calm - N/A   Mostly Cloudy
2:53 PM 79.0 °F - 66.0 °F 64% 29.95 in 10.0 mi Calm Calm - N/A   Mostly Cloudy
3:01 PM 78.8 °F - 66.2 °F 65% 29.99 in 10.0 mi Calm Calm - N/A   Scattered Clouds
3:53 PM 80.1 °F 82.1 °F 66.0 °F 62% 29.93 in 10.0 mi Calm Calm - N/A   Scattered Clouds
4:53 PM 80.1 °F 82.1 °F 66.0 °F 62% 29.91 in 10.0 mi Calm Calm - N/A   Overcast
5:53 PM 81.0 °F 83.3 °F 66.9 °F 62% 29.91 in 10.0 mi Calm Calm - N/A   Clear
6:53 PM 77.0 °F - 66.0 °F 69% 29.90 in 10.0 mi Calm Calm - N/A   Clear
7:01 PM 78.8 °F - 66.2 °F 65% 29.95 in 10.0 mi Calm Calm - N/A Thunderstorm Partly Cloudy
7:16 PM 73.4 °F - 68.0 °F 83% 29.95 in 10.0 mi NW 6.9 mph 18.4 mph 0.00 in Rain Light Rain
7:33 PM 73.4 °F - 68.0 °F 83% 29.95 in 10.0 mi NNW 5.8 mph - 0.00 in Thunderstorm Overcast
7:53 PM 73.0 °F - 66.0 °F 79% 29.93 in 10.0 mi North 5.8 mph - 0.00 in Thunderstorm Overcast
8:02 PM 71.6 °F - 66.2 °F 83% 29.97 in 10.0 mi Variable 3.5 mph - N/A   Overcast
8:53 PM 70.0 °F - 64.9 °F 84% 29.93 in 10.0 mi Calm Calm - N/A   Overcast
9:53 PM 69.1 °F - 66.0 °F 90% 29.95 in 9.0 mi Calm Calm - N/A   Mostly Cloudy
10:53 PM 68.0 °F - 66.0 °F 93% 29.96 in 8.0 mi Calm Calm - N/A   Scattered Clouds
11:53 PM 66.9 °F - 64.9 °F 93% 29.97 in 7.0 mi Calm Calm - N/A   Clear